TimeMDT,TemperatureF,Dew PointF,Humidity,Sea Level PressureIn,VisibilityMPH,Wind Direction,Wind SpeedMPH,Gust SpeedMPH,PrecipitationIn,Events,Conditions,WindDirDegrees,DateUTC
12:54 AM,54.0,39.0,57,29.81,10.0,WSW,11.5,-,N/A,,Clear,250,2013-05-15 06:54:00
1:54 AM,52.0,37.9,59,29.79,10.0,WSW,11.5,-,N/A,,Clear,250,2013-05-15 07:54:00
2:54 AM,52.0,37.9,59,29.78,10.0,WSW,11.5,-,N/A,,Clear,240,2013-05-15 08:54:00
3:54 AM,53.1,37.0,55,29.78,10.0,WSW,16.1,-,N/A,,Clear,250,2013-05-15 09:54:00
4:54 AM,54.0,36.0,51,29.80,10.0,WSW,16.1,-,N/A,,Clear,240,2013-05-15 10:54:00
5:54 AM,55.0,36.0,49,29.80,10.0,WSW,16.1,-,N/A,,Clear,240,2013-05-15 11:54:00
6:54 AM,55.0,37.0,51,29.83,10.0,WSW,15.0,-,N/A,,Clear,250,2013-05-15 12:54:00
7:54 AM,61.0,37.0,41,29.81,10.0,WSW,13.8,-,N/A,,Clear,250,2013-05-15 13:54:00
8:54 AM,69.1,37.9,32,29.80,10.0,West,8.1,-,N/A,,Clear,280,2013-05-15 14:54:00
9:54 AM,75.0,37.9,26,29.78,10.0,North,5.8,-,N/A,,Clear,10,2013-05-15 15:54:00
10:54 AM,77.0,36.0,23,29.78,10.0,Variable,5.8,-,N/A,,Clear,0,2013-05-15 16:54:00
11:54 AM,80.1,35.1,20,29.75,10.0,Variable,3.5,-,N/A,,Clear,0,2013-05-15 17:54:00
12:54 PM,82.0,32.0,16,29.72,10.0,East,12.7,18.4,N/A,,Clear,90,2013-05-15 18:54:00
1:54 PM,82.9,28.9,14,29.70,10.0,North,5.8,-,N/A,,Clear,360,2013-05-15 19:54:00
2:54 PM,81.0,30.9,16,29.70,10.0,NNE,9.2,-,0.00,Rain,Light Rain,30,2013-05-15 20:54:00
3:49 PM,73.4,35.6,25,29.95,10.0,WNW,31.1,46.0,0.00,Rain,Light Rain,300,2013-05-15 21:49:00
3:54 PM,72.0,39.0,30,29.75,10.0,WNW,16.1,46.0,0.00,Rain,Light Rain,300,2013-05-15 21:54:00
4:54 PM,73.9,36.0,25,29.75,10.0,West,12.7,-,N/A,,Clear,280,2013-05-15 22:54:00
5:54 PM,72.0,36.0,27,29.75,10.0,West,12.7,-,N/A,,Partly Cloudy,280,2013-05-15 23:54:00
6:54 PM,73.0,33.1,23,29.78,10.0,North,3.5,18.4,N/A,,Overcast,10,2013-05-16 00:54:00
7:29 PM,69.8,37.4,31,30.00,10.0,WSW,18.4,-,N/A,,Mostly Cloudy,250,2013-05-16 01:29:00
7:54 PM,66.9,39.0,36,29.80,10.0,West,15.0,-,N/A,,Clear,260,2013-05-16 01:54:00
8:54 PM,64.0,39.0,40,29.77,10.0,ENE,12.7,-,N/A,,Mostly Cloudy,70,2013-05-16 02:54:00
9:54 PM,62.1,42.1,48,29.78,10.0,Calm,Calm,-,N/A,,Clear,0,2013-05-16 03:54:00
10:54 PM,59.0,41.0,51,29.79,10.0,West,4.6,-,N/A,,Clear,280,2013-05-16 04:54:00
11:54 PM,57.9,41.0,53,29.78,10.0,WSW,10.4,-,N/A,,Clear,250,2013-05-16 05:54:00